[[{"header":{"parameterUnit":"m.s-1","parameterCategory":1,"la1":30.2991,"la2":30.254,"lo1":-89.0895,"lo2":-89.0444,"dy":0.0017,"dx":0.0017,"nx":28,"ny":28,"refTime":"2024-05-22T09:00:00:Z","depth":0,"parameterNumber":2,"parameterNumberName":"U-component_of_WINDS"},"data":[0,0,0,0,0,0,0,0,0,0,0,0,0,0,0,0,0,0,0,0,0,0,0,0,0,0,0,0,0,0,0,0,0,0,0,0,0,0,0,0,0,0,0,0,0,0,0,0,0,0,0,0,0,0,0,0,0,0,-1.9547,-1.9547,0,-1.9587,-1.9587,-1.9587,-1.957,-1.9569,-1.9568,-1.9567,-1.9608,-1.961,-1.9612,0,0,0,0,0,0,0,0,0,0,0,0,0,-1.9458,-1.946,-1.9547,-1.9547,-1.9548,-1.9586,-1.9587,-1.9588,-1.957,-1.9569,-1.9567,-1.9566,-1.9607,-1.9609,-1.9612,0,0,0,0,0,0,0,0,0,0,0,0,0,-1.9497,-1.946,-1.9547,-1.9544,-1.9544,-1.9586,-1.9587,-1.9588,-1.957,-1.9569,-1.9567,-1.9566,-1.9606,-1.9609,-1.9612,-1.966,0,0,-1.9621,-1.9623,0,0,0,0,0,0,0,0,-1.9495,-1.95,-1.9543,-1.9544,-1.9544,-1.9572,-1.9571,-1.9612,-1.957,-1.956,-1.9567,-1.9565,-1.9597,-1.9601,-1.9611,-1.9662,-1.9664,-1.9622,-1.9623,-1.9625,-1.9626,0,0,0,0,0,0,0,-1.9492,-1.9498,-1.9562,-1.9544,-1.9545,-1.9541,-1.9545,-1.9578,-1.9586,-1.9561,-1.956,-1.9565,-1.9597,-1.9608,-1.9612,-1.9664,-1.9621,-1.9624,-1.9626,-1.9627,-1.9759,-1.9761,0,0,0,0,0,0,-1.9489,-1.9496,-1.9561,-1.9564,-1.9515,-1.9544,-1.9548,-1.9564,-1.9586,-1.9588,-1.9566,-1.9564,-1.9604,-1.9609,-1.9613,-1.9672,-1.9625,-1.9627,-1.9629,-1.9757,-1.9759,-1.9761,0,0,0,0,0,0,-1.9487,-1.9495,-1.956,-1.953,-1.9538,-1.9547,-1.9565,-1.9566,-1.9577,-1.959,-1.9591,-1.9576,-1.9603,-1.9609,-1.9649,-1.9673,-1.9629,-1.9632,-1.9755,-1.9758,-1.976,-1.9788,0,0,0,0,0,0,-1.9485,-1.9495,-1.9512,-1.953,-1.9539,-1.9594,-1.9567,-1.9568,-1.9583,-1.958,-1.96,-1.9601,-1.9602,-1.9645,-1.9652,-1.9676,-1.9634,-1.9753,-1.9757,-1.976,-1.9785,-1.9791,-1.9796,0,0,0,0,0,-1.9482,-1.9518,-1.9513,-1.9521,-1.9561,-1.9595,-1.96,-1.96,-1.9584,-1.9603,-1.9611,-1.9601,-1.967,-1.9649,-1.9657,-1.9682,-1.9752,-1.9756,-1.9759,-1.9782,-1.979,-1.9796,0,0,0,0,0,0,-1.9501,-1.952,-1.9515,-1.9558,-1.9575,-1.9592,-1.9614,-1.9608,-1.963,-1.9627,-1.9627,-1.9632,-1.9673,-1.9682,-1.9659,-1.9731,-1.9708,-1.9714,-1.9723,-1.973,-1.9736,-1.9732,-1.9636,0,0,0,0,0,-1.9511,-1.9537,-1.9552,-1.9588,-1.9597,-1.9605,-1.9619,-1.9619,-1.9636,-1.9644,-1.9655,-1.9673,-1.9699,-1.9715,-1.974,-1.9788,-1.9792,-1.9809,-1.9815,-1.982,-1.9824,-1.9851,-1.9859,-1.9774,-1.9774,-1.9774,0,0,-1.953,-1.9544,-1.956,-1.9593,-1.9606,-1.9633,-1.9611,-1.964,-1.966,-1.9648,-1.9686,-1.9696,-1.9716,-1.976,-1.978,-1.9769,-1.9849,-1.9825,-1.9828,-1.983,-1.9856,-1.9864,-1.9871,-1.9776,-1.9776,-1.9776,0,0,-1.9579,-1.9592,-1.9624,-1.9639,-1.966,-1.9665,-1.9673,-1.9692,-1.9697,-1.9736,-1.9728,-1.9753,-1.9797,-1.9813,-1.9826,-1.9885,-1.9877,-1.9894,-1.9922,-1.9949,-1.9955,-1.9961,-1.9982,-1.999,-1.9898,-1.9898,-1.9898,0,-1.9601,-1.964,-1.9642,-1.9672,-1.9687,-1.9679,-1.9712,-1.9726,-1.9754,-1.9765,-1.9753,-1.981,-1.9823,-1.9871,-1.9886,-1.9897,-1.9907,-1.989,-1.9954,-1.996,-1.9966,-1.9986,-1.9994,-1.99,-1.99,-1.99,-1.9899,0,-1.9666,-1.9694,-1.9718,-1.9745,-1.9764,-1.9795,-1.9802,-1.9821,-1.982,-1.9827,-1.9868,-1.9884,-1.9912,-1.9924,-1.9923,-1.9973,-1.9965,-1.9954,-1.993,-1.9976,-1.9994,-2.0002,-1.9903,-1.9902,-1.9901,-1.9901,0,0,-1.9724,-1.9755,-1.9763,-1.9776,-1.9801,-1.9823,-1.9855,-1.9883,-1.9899,-1.992,-1.9948,-1.9987,-1.9978,-1.9993,-1.9994,-2.0018,-2.0064,-2.0003,-2.0004,-2.0013,-2.012,-2.0127,-2.0136,-2.006,-2.0061,-2.0062,-2.0118,0,-1.9775,-1.983,-1.9834,-1.9885,-1.9912,-1.9906,-1.9935,-1.9953,-1.9962,-1.9987,-1.9997,-2.0024,-2.001,-2.0019,-2.0042,-2.0053,-2.0085,-2.0049,-2.0085,-2.0086,-2.0078,-2.0146,-2.0153,-2.0205,-2.0126,-2.0127,-2.0128,0,-1.9839,-1.9862,-1.9916,-1.9938,-1.9949,-1.9975,-2.0002,-2.0026,-2.0048,-2.0052,-2.0072,-2.007,-2.0105,-2.0083,-2.0131,-2.0107,-2.0123,-2.0131,-2.0133,-2.0134,-2.0108,-2.0148,-2.0221,-2.0229,-2.014,-2.0139,-2.0138,0,-1.9876,-1.9921,-1.9959,-1.9971,-1.9998,-2.0016,-2.0028,-2.0049,-2.0066,-2.009,-2.0102,-2.013,-2.0145,-2.0168,-2.0175,-2.0158,-2.0223,-2.0201,-2.0228,-2.0228,-2.024,-2.0239,-2.0315,-2.0253,-2.0253,-2.0253,-2.0253,0,-1.993,-1.9963,-1.9976,-1.9999,-2.0037,-2.0042,-2.0079,-2.0091,-2.011,-2.0136,-2.0134,-2.0159,-2.0167,-2.0194,-2.02,-2.024,-2.0247,-2.0252,-2.0253,-2.0251,-2.025,-2.0259,-2.0255,-2.0255,-2.0254,-2.0254,-2.0254,0,-1.9976,-1.9986,-2.0027,-2.005,-2.0057,-2.0084,-2.0104,-2.0127,-2.0137,-2.017,-2.0178,-2.0194,-2.0225,-2.0235,-2.0274,-2.0278,-2.0324,-2.0322,-2.0316,-2.0315,-2.0341,-2.0338,-2.0425,-2.0437,-2.0368,-2.0369,-2.037,0,-2.0009,-2.0034,-2.006,-2.0078,-2.0091,-2.0119,-2.0137,-2.0145,-2.0164,-2.0193,-2.0213,-2.0245,-2.027,-2.0321,-2.0336,-2.0366,-2.0364,-2.0393,-2.0368,-2.0366,-2.0364,-2.0361,-2.0364,-2.0396,-2.0397,-2.0398,-2.0398,0,-2.0066,-2.007,-2.0096,-2.0125,-2.0147,-2.0169,-2.0191,-2.0206,-2.0218,-2.024,-2.0272,-2.0292,-2.0332,-2.0364,-2.0395,-2.0408,-2.0405,-2.0406,-2.0414,-2.0411,-2.0406,-2.0409,-2.0327,-2.0403,-2.0403,-2.0403,-2.0402,-2.0402,-2.0106,-2.0128,-2.0151,-2.018,-2.0198,-2.022,-2.0243,-2.0256,-2.0283,-2.0316,-2.032,-2.0355,-2.0379,-2.0421,-2.0436,-2.0465,-2.0457,-2.0468,-2.047,-2.0473,-2.0474,-2.0404,-2.0471,-2.0471,-2.0471,-2.047,-2.047,0,-2.0162,-2.0177,-2.0204,-2.0236,-2.0259,-2.0256,-2.0281,-2.0301,-2.0332,-2.0355,-2.038,-2.0419,-2.0451,-2.0469,-2.0501,-2.052,-2.052,-2.0528,-2.0526,-2.053,-2.048,-2.047,-2.0528,-2.0528,-2.0528,-2.0528,-2.0528,-2.0528,-2.0194,-2.0232,-2.024,-2.0288,-2.0303,-2.0337,-2.0352,-2.0372,-2.039,-2.0433,-2.046,-2.0472,-2.0494,-2.0527,-2.0557,-2.0562,-2.0573,-2.0582,-2.0586,-2.0539,-2.0533,-2.0527,-2.0517,-2.0585,-2.0585,-2.0633,-2.0633,-2.0634]},{"header":{"parameterUnit":"m.s-1","parameterCategory":1,"la1":30.2991,"la2":30.254,"lo1":-89.0895,"lo2":-89.0444,"dy":0.0017,"dx":0.0017,"nx":28,"ny":28,"refTime":"2024-05-22T09:00:00:Z","depth":0,"parameterNumber":3,"parameterNumberName":"V-component_of_WINDS"},"data":[0,0,0,0,0,0,0,0,0,0,0,0,0,0,0,0,0,0,0,0,0,0,0,0,0,0,0,0,0,0,0,0,0,0,0,0,0,0,0,0,0,0,0,0,0,0,0,0,0,0,0,0,0,0,0,0,0,0,4.4546,4.4546,0,4.4545,4.4545,4.4545,4.4555,4.4556,4.4556,4.4556,4.4551,4.4551,4.455,0,0,0,0,0,0,0,0,0,0,0,0,0,4.4555,4.4555,4.4546,4.4546,4.4546,4.4545,4.4545,4.4545,4.4555,4.4556,4.4556,4.4556,4.4551,4.4551,4.455,0,0,0,0,0,0,0,0,0,0,0,0,0,4.4552,4.4555,4.4546,4.4551,4.4552,4.4545,4.4545,4.4545,4.4555,4.4556,4.4556,4.4557,4.4551,4.4551,4.455,4.4537,0,0,4.4548,4.4548,0,0,0,0,0,0,0,0,4.4552,4.4552,4.4551,4.4551,4.4552,4.4551,4.4546,4.4542,4.4555,4.4554,4.4556,4.4557,4.455,4.455,4.4549,4.4537,4.4537,4.4548,4.4548,4.4548,4.4547,0,0,0,0,0,0,0,4.4552,4.4552,4.4546,4.4551,4.4551,4.4553,4.4553,4.4546,4.4549,4.4554,4.4555,4.4555,4.4551,4.4549,4.4549,4.4537,4.4548,4.4548,4.4547,4.4547,4.4516,4.4516,0,0,0,0,0,0,4.4552,4.4552,4.4546,4.4546,4.4553,4.4552,4.4552,4.4551,4.455,4.455,4.4554,4.4555,4.455,4.4549,4.4548,4.4534,4.4548,4.4547,4.4547,4.4516,4.4516,4.4515,0,0,0,0,0,0,4.4552,4.4552,4.4546,4.4549,4.4548,4.4552,4.455,4.455,4.4549,4.455,4.455,4.4552,4.455,4.4549,4.4541,4.4534,4.4547,4.4546,4.4517,4.4516,4.4516,4.4505,0,0,0,0,0,0,4.4553,4.4552,4.4547,4.4549,4.4548,4.4539,4.4549,4.455,4.4548,4.4549,4.4548,4.4548,4.4551,4.4541,4.454,4.4533,4.4546,4.4518,4.4517,4.4516,4.4506,4.4504,4.4502,0,0,0,0,0,4.4553,4.4543,4.4547,4.4546,4.4543,4.4538,4.4538,4.4542,4.4548,4.4543,4.4544,4.4548,4.4535,4.4541,4.4539,4.4532,4.4518,4.4517,4.4516,4.4507,4.4504,4.4502,0,0,0,0,0,0,4.4539,4.4543,4.4548,4.4538,4.4538,4.454,4.4534,4.4539,4.4536,4.4537,4.4541,4.4541,4.4532,4.4531,4.4537,4.452,4.4527,4.4526,4.4521,4.4519,4.4517,4.4517,4.4545,0,0,0,0,0,4.4535,4.4532,4.4536,4.4527,4.4527,4.4531,4.4529,4.4532,4.4531,4.4531,4.4531,4.4529,4.4525,4.4522,4.4518,4.4506,4.4506,4.4501,4.4499,4.4497,4.4496,4.4491,4.4489,4.4512,4.4512,4.4512,0,0,4.4526,4.4528,4.4526,4.4524,4.4524,4.452,4.453,4.4525,4.4522,4.453,4.4522,4.4522,4.4521,4.4511,4.4506,4.451,4.449,4.4496,4.4495,4.4494,4.4489,4.4487,4.4485,4.4511,4.4512,4.4512,0,0,4.4508,4.451,4.4503,4.4504,4.4505,4.4508,4.4506,4.4508,4.4509,4.4502,4.4508,4.4504,4.4496,4.4495,4.4493,4.4477,4.4481,4.4476,4.4466,4.4461,4.4459,4.4458,4.4452,4.445,4.4475,4.4475,4.4474,0,4.4497,4.4492,4.4499,4.4494,4.4493,4.4502,4.4496,4.4495,4.4494,4.4493,4.4498,4.4489,4.4488,4.4479,4.4475,4.4474,4.4472,4.4476,4.4459,4.4458,4.4456,4.4451,4.4449,4.4474,4.4474,4.4474,4.4474,0,4.4479,4.4475,4.447,4.4471,4.4469,4.4463,4.4469,4.4466,4.447,4.4473,4.4466,4.4466,4.4462,4.4461,4.4463,4.4452,4.4454,4.4459,4.4466,4.4453,4.4449,4.4447,4.4473,4.4473,4.4473,4.4474,0,0,4.445,4.4457,4.4455,4.4456,4.4458,4.4455,4.445,4.4449,4.4447,4.4446,4.4442,4.4436,4.4441,4.4439,4.4442,4.4438,4.4426,4.4443,4.4443,4.444,4.4414,4.441,4.4408,4.4429,4.4429,4.4428,4.4414,0,4.4433,4.4426,4.4433,4.4424,4.4421,4.443,4.4426,4.4426,4.4429,4.4426,4.4428,4.4425,4.4431,4.4431,4.4427,4.4428,4.4421,4.4429,4.4424,4.4424,4.4424,4.4405,4.4401,4.4387,4.4412,4.4412,4.4411,0,4.4412,4.4413,4.4404,4.4409,4.4408,4.4404,4.4404,4.4401,4.4403,4.4405,4.4404,4.4409,4.4404,4.4411,4.4404,4.441,4.4409,4.4409,4.4409,4.4408,4.4417,4.4404,4.4383,4.4381,4.4409,4.4409,4.4409,0,4.4393,4.4392,4.4387,4.4387,4.4392,4.4389,4.4391,4.4393,4.4392,4.4392,4.4391,4.439,4.4388,4.4387,4.4391,4.4396,4.4384,4.4391,4.4385,4.4385,4.4381,4.4381,4.4359,4.438,4.438,4.438,4.438,0,4.4374,4.4368,4.4378,4.4375,4.4369,4.4377,4.4371,4.4373,4.4375,4.4372,4.4379,4.4376,4.4382,4.438,4.4383,4.4377,4.4376,4.4377,4.4378,4.4377,4.4377,4.4375,4.4376,4.438,4.438,4.438,4.438,0,4.4351,4.4358,4.4353,4.4359,4.4361,4.4356,4.4361,4.4358,4.4362,4.4358,4.4357,4.4363,4.436,4.4365,4.4362,4.4364,4.4356,4.4358,4.4356,4.4357,4.435,4.4351,4.4327,4.4324,4.4346,4.4346,4.4346,0,4.4338,4.4334,4.434,4.434,4.4342,4.434,4.434,4.4348,4.4347,4.4349,4.4346,4.4345,4.4344,4.434,4.4343,4.4341,4.4343,4.4335,4.4343,4.4342,4.4344,4.4344,4.4344,4.4333,4.4333,4.4333,4.4333,0,4.4314,4.4318,4.4318,4.432,4.432,4.4321,4.4323,4.4322,4.433,4.4329,4.4327,4.4327,4.4326,4.4324,4.4324,4.4325,4.433,4.433,4.4329,4.4327,4.4326,4.4327,4.4352,4.4331,4.4331,4.4331,4.4331,4.4331,4.4296,4.4294,4.4298,4.4298,4.4301,4.4303,4.4301,4.4305,4.4305,4.4305,4.431,4.4308,4.431,4.431,4.4311,4.4309,4.4312,4.431,4.4309,4.4309,4.4308,4.4327,4.4309,4.4309,4.4309,4.4309,4.4309,0,4.4273,4.4277,4.4277,4.428,4.4281,4.4288,4.429,4.4289,4.4288,4.429,4.429,4.4289,4.4288,4.4292,4.4292,4.4289,4.4292,4.4289,4.4289,4.4289,4.4304,4.4306,4.4287,4.4287,4.4287,4.4287,4.4287,4.4287,4.4261,4.4258,4.4263,4.4261,4.4264,4.4264,4.4265,4.4266,4.4269,4.4268,4.4267,4.4271,4.4274,4.4274,4.4273,4.4274,4.4274,4.427,4.4272,4.4286,4.4288,4.429,4.4292,4.427,4.427,4.4257,4.4257,4.4257]}]]